Location: ????????
(55.1591°N, 39.1782°E)
Time: 01:52:23
(UTC+00:00)

Cosmos 1538 Rocket - Pass Details

Date: 14 April 2024
Orbit: 751 x 789 km, 74.0° (Epoch: 28 May)

Event Time Altitude Azimuth Distance (km) Brightness Sun altitude
Exits shadow 00:27:29 19° 199° (SSW) 1,812 5.4 -14.8°
Maximum altitude 00:31:25 80° 114° (ESE) 804 4.1 -14.4°
Drops below altitude 10° 00:36:45 10° 29° (NNE) 2,345 7.7 -13.8°
Sets 00:39:08 0° 29° (NNE) 3,272 8.7 -13.6°
